[TLELIST] Archives

 

[TLELIST] Current TLEs

January 5th 2026 PDT

0 HST 1 20580U 90037B 26004.45283296 .00008296 00000-0 28355-3 0 9996 2 20580 28.4666 117.8486 0002527 116.6898 243.3956 15.28391625763470 0 ISS (ZARYA) 1 25544U 98067A 26005.21007013 .00011029 00000-0 20718-3 0 9991 2 25544 51.6325 26.2661 0007560 342.6147 17.4581 15.49105990546499 0 CXO 1 25867U 99040B 26002.77389708 .00000599 00000-0 00000-0 0 9992 2 25867 53.4579 121.7282 8107582 310.8774 0.1301 0.37803565 16703 ...Continue Reading

[TLELIST] Current TLEs

January 5th 2026 PDT

0 HST 1 20580U 90037B 26004.45283296 .00008296 00000-0 28355-3 0 9996 2 20580 28.4666 117.8486 0002527 116.6898 243.3956 15.28391625763470 0 ISS (ZARYA) 1 25544U 98067A 26005.21007013 .00011029 00000-0 20718-3 0 9991 2 25544 51.6325 26.2661 0007560 342.6147 17.4581 15.49105990546499 0 CXO 1 25867U 99040B 26002.77389708 .00000599 00000-0 00000-0 0 9992 2 25867 53.4579 121.7282 8107582 310.8774 0.1301 0.37803565 16703 ...Continue Reading

[TLELIST] Current TLEs

January 4th 2026 PDT

0 HST 1 20580U 90037B 26003.99575588 .00010446 00000-0 35903-3 0 9999 2 20580 28.4667 120.9615 0002543 112.5508 247.5357 15.28385094763408 0 ISS (ZARYA) 1 25544U 98067A 26004.24240112 .00010563 00000-0 19894-3 0 9997 2 25544 51.6326 31.0546 0007567 338.8096 21.2578 15.49083682546349 0 CXO 1 25867U 99040B 26002.77389708 .00000599 00000-0 00000-0 0 9992 2 25867 53.4579 121.7282 8107582 310.8774 0.1301 0.37803565 16703 ...Continue Reading

[TLELIST] Current TLEs

January 3rd 2026 PDT

0 HST 1 20580U 90037B 26002.68980631 .00010762 00000-0 37042-3 0 9990 2 20580 28.4662 129.8555 0002579 100.6933 259.3952 15.28356782763205 0 ISS (ZARYA) 1 25544U 98067A 26003.21020602 .00015578 00000-0 28954-3 0 9991 2 25544 51.6329 36.1624 0007549 334.7101 25.3517 15.49059586546183 0 CXO 1 25867U 99040B 26002.77389708 .00000599 00000-0 00000-0 0 9992 2 25867 53.4579 121.7282 8107582 310.8774 0.1301 0.37803565 16703 ...Continue Reading

[TLELIST] Current TLEs

January 2nd 2026 PDT

0 HST 1 20580U 90037B 26001.71032804 .00011638 00000-0 40139-3 0 9997 2 20580 28.4657 136.5263 0002604 92.0873 268.0020 15.28338358763051 0 ISS (ZARYA) 1 25544U 98067A 26002.24250498 .00016008 00000-0 29760-3 0 9996 2 25544 51.6329 40.9506 0007531 330.5355 29.5208 15.49029434546037 0 CXO 1 25867U 99040B 26002.77389708 .00000599 00000-0 00000-0 0 9992 2 25867 53.4579 121.7282 8107582 310.8774 0.1301 0.37803565 16703 ...Continue Reading

[TLELIST] Current TLEs

January 1st 2026 PDT

0 HST 1 20580U 90037B 25365.46963674 .00010357 00000-0 35671-3 0 9991 2 20580 28.4654 144.9753 0002589 81.6209 278.4680 15.28310253762863 0 ISS (ZARYA) 1 25544U 98067A 26001.21026978 .00014823 00000-0 27654-3 0 9999 2 25544 51.6328 46.0577 0007510 326.8003 33.2513 15.48996227545870 0 CXO 1 25867U 99040B 26002.77389708 .00000599 00000-0 00000-0 0 9992 2 25867 53.4579 121.7282 8107582 310.8774 0.1301 0.37803565 16703 ...Continue Reading

[TLELIST] Current TLEs

December 31st 2025 PDT

0 HST 1 20580U 90037B 25365.07783502 .00010772 00000-0 37137-3 0 9998 2 20580 28.4654 147.6437 0002613 77.2638 282.8249 15.28303086762807 0 ISS (ZARYA) 1 25544U 98067A 25365.24252991 .00014700 00000-0 27461-3 0 9990 2 25544 51.6330 50.8452 0007496 322.9593 37.0877 15.48966283545720 0 CXO 1 25867U 99040B 25365.12968133 .00000613 00000-0 00000+0 0 9993 2 25867 53.3937 121.8485 8113049 310.8318 0.2745 0.37805836 16688 ...Continue Reading

[TLELIST] Current TLEs

December 30th 2025 PDT

0 HST 1 20580U 90037B 25364.09832155 .00010102 00000-0 34807-3 0 9996 2 20580 28.4652 154.3142 0002617 68.5896 291.4978 15.28282797762659 0 ISS (ZARYA) 1 25544U 98067A 25364.14573551 .00004955 00000-0 98268-4 0 9991 2 25544 51.6332 56.2707 0007469 318.0919 41.9497 15.48928231545557 0 CXO 1 25867U 99040B 25365.12968133 .00000613 00000-0 00000+0 0 9993 2 25867 53.3937 121.8485 8113049 310.8318 0.2745 0.37805836 16688 ...Continue Reading

[TLELIST] Current TLEs

December 29th 2025 PDT

0 HST 1 20580U 90037B 25362.79228396 .00009035 00000-0 31078-3 0 9997 2 20580 28.4653 163.2077 0002570 57.8157 302.2687 15.28256861762454 0 ISS (ZARYA) 1 25544U 98067A 25362.85596041 .00017802 00000-0 32007-3 0 9999 2 25544 51.6322 62.6586 0003255 316.0304 44.0425 15.49920091545357 0 CXO 1 25867U 99040B 25365.12968133 .00000613 00000-0 00000+0 0 9993 2 25867 53.3937 121.8485 8113049 310.8318 0.2745 0.37805836 16688 ...Continue Reading

[TLELIST] Current TLEs

December 29th 2025 PDT

0 HST 1 20580U 90037B 25362.79228396 .00009035 00000-0 31078-3 0 9997 2 20580 28.4653 163.2077 0002570 57.8157 302.2687 15.28256861762454 0 ISS (ZARYA) 1 25544U 98067A 25362.85596041 .00017802 00000-0 32007-3 0 9999 2 25544 51.6322 62.6586 0003255 316.0304 44.0425 15.49920091545357 0 CXO 1 25867U 99040B 25365.12968133 .00000613 00000-0 00000+0 0 9993 2 25867 53.3937 121.8485 8113049 310.8318 0.2745 0.37805836 16688 ...Continue Reading
  • This mailing list is a public mailing list - anyone may join or leave, at any time.
  • This mailing list is announce-only.

International Space Station (ISS) / Hubble Space Telescope (HST) / Chandra X-Ray Observatory Orbital Data via EMAIL

Privacy Policy:

Private list